Location: *
(32.8140°S, 174.6161°E)
Time: 23:22:35
(UTC+00:00)

CZ-4B R/B - Pass Details

Date: 10 December 2019
Orbit: 495 x 648 km, 97.7° (Epoch: 26 January)

Event Time Altitude Azimuth Distance (km) Brightness Sun altitude
Rises 16:09:26 0° 15° (NNE) 2,616 7.1 -11.0°
Reaches altitude 10° 16:11:31 10° 16° (NNE) 1,724 6.2 -10.6°
Maximum altitude 16:15:13 80° 102° (ESE) 519 3.8 -10.0°
Drops below altitude 10° 16:18:54 10° 189° (S) 1,724 6.7 -9.3°
Sets 16:21:00 0° 190° (S) 2,617 7.6 -9.0°
